#timestamp,LO_Frequency,Hit,StdDev 
1517259615.6,286046997.6,N
1517259635.5,286046996.8,N
1517259655.3,286046996.6,N
1517259675.1,286046999.6,N
1517259695.9,286046996.7,N
1517259715.7,286046997.0,N
1517259735.5,286046997.2,N
1517259755.4,286046997.0,N
1517259775.2,286046996.8,N
1517259795.1,286046999.3,N
1517259796.0,286046999.3,N
1517259815.8,286046999.4,N
1517259835.6,286046996.6,N
1517259855.5,286046999.6,N
1517259875.3,286046996.9,N
1517259895.2,286046997.4,N
1517259915.9,286046996.6,N
1517259935.7,286046999.2,N
1517259955.6,286046999.6,N
1517259975.4,286046996.9,N
1517259995.2,286046997.8,N
1517260015.1,286046997.2,N
1517260016.0,286046997.2,N
1517260035.8,286046995.0,Y
1517260055.7,286046998.1,P
1517260075.5,286047001.1,P
1517260095.3,286046998.1,N
1517260115.2,286047000.8,N
1517260135.0,286047001.0,N
1517260135.9,286047001.0,N
1517260155.8,286047000.3,N
1517260175.6,286047000.0,N
1517260195.4,286047000.3,N
1517260215.3,286046999.7,N
1517260235.1,286046999.9,N
1517260255.8,286047001.0,N
1517260275.7,286046998.3,N
1517260295.5,286046996.5,Y
1517260315.4,286047000.4,P
1517260335.2,286047000.2,N
1517260355.0,286047002.1,P
1517260355.9,286047002.1,N
1517260375.4,286047000.4,N
1517260395.2,286047000.5,N
1517260415.1,286047001.6,N
1517260416.0,286047001.6,N
1517260435.8,286047002.0,N
1517260455.6,286047000.1,N
1517260475.5,286047000.3,N
1517260495.3,286047002.4,N
1517260515.2,286047004.4,Y
1517260535.9,286047001.5,P
1517260555.7,286047004.0,P
1517260575.6,286047002.6,N
1517260595.4,286047004.4,Y
1517260615.2,286046999.9,P
1517260635.1,286047000.6,N
1517260636.0,286047000.6,N
1517260655.8,286047000.1,N
1517260675.7,286046998.7,N
1517260695.5,286046999.3,N
1517260715.3,286046999.4,N
1517260735.2,286046997.8,N
1517260755.0,286046996.7,N
1517260755.9,286046996.7,N
1517260775.8,286046999.4,N
1517260795.6,286047000.5,N
1517260815.4,286047000.9,N
1517260835.3,286047001.2,N
1517260855.1,286047000.1,N
1517260875.8,286046999.8,N
1517260895.7,286047000.4,N
1517260915.5,286047002.8,N
1517260935.4,286047000.5,N
1517260955.2,286047002.6,N
1517260975.0,286047000.0,N
1517260975.9,286047000.0,N
1517260995.8,286047000.5,N
1517261015.6,286047000.1,N
1517261035.4,286047002.0,N
1517261055.3,286047002.5,N
1517261075.1,286047002.2,N
1517261095.9,286047001.9,N
1517261115.7,286047002.2,N
1517261135.5,286047002.1,N
1517261155.4,286047004.3,N
1517261175.2,286047001.9,N
1517261195.0,286047001.7,N
1517261195.9,286047001.7,N
1517261215.8,286047003.6,N
1517261235.6,286047003.9,N
1517261255.5,286047003.5,N
1517261275.3,286047003.7,N
1517261295.1,286047004.1,N
1517261315.9,286047003.1,N
1517261335.7,286047002.2,N
1517261355.6,286047002.7,N
1517261375.4,286047002.5,N
1517261395.2,286047001.9,N
1517261415.1,286047004.4,Y
1517261416.0,286047004.4,P
1517261435.8,286047000.1,N
1517261455.7,286047002.3,N
1517261475.5,286047002.5,N
1517261495.3,286047002.8,N
1517261515.2,286047004.3,Y
1517261535.0,286047001.2,P
1517261535.9,286047001.2,N
1517261555.7,286046998.5,N
1517261575.6,286046998.5,N
1517261595.4,286046999.5,N
1517261615.3,286046998.8,N
1517261635.1,286046999.6,N
1517261636.0,286046999.6,N
1517261655.8,286046996.7,N
1517261675.7,286046997.7,N
1517261695.5,286046996.5,N
1517261715.4,286046999.3,N
1517261735.2,286046996.7,N
1517261755.0,286046995.7,N
1517261755.9,286046995.7,N
1517261775.8,286046996.2,N
1517261795.6,286046995.2,N
1517261815.4,286046995.0,N
1517261835.3,286046995.2,N
1517261855.1,286046996.4,N
1517261875.9,286046993.6,Y
1517261895.7,286046997.0,P
1517261915.5,286046996.8,P
1517261935.4,286046998.9,N
1517261955.2,286046998.4,N
1517261975.0,286046998.3,N
1517261975.9,286046998.3,N
1517261995.8,286046999.5,N
1517262015.6,286046999.4,N
1517262035.5,286046998.6,N
1517262055.3,286046999.9,N
1517262075.1,286047002.1,N
1517262095.9,286047002.5,N
1517262115.7,286047000.5,N
1517262135.6,286047002.7,N
1517262155.4,286047000.6,N
1517262175.2,286047001.0,N
1517262195.1,286047002.7,N
1517262196.0,286047002.7,N
1517262215.8,286047001.4,N
1517262235.6,286047001.3,N
1517262255.5,286047006.0,Y
1517262275.3,286047003.8,P
1517262295.2,286047004.0,N
1517262315.9,286047001.7,N
1517262335.7,286047002.3,N
1517262355.6,286047002.4,N
1517262375.4,286047001.9,N
1517262395.3,286047004.2,Y
1517262415.1,286047001.0,P
1517262416.0,286047001.0,N
1517262435.8,286047000.9,N
1517262455.7,286047002.8,Y
1517262475.5,286047002.5,P
1517262495.4,286047000.3,N
1517262515.2,286046998.3,N
1517262535.0,286046998.7,N
1517262535.9,286046998.7,N
1517262555.8,286046998.3,N
1517262575.6,286047000.9,N
1517262595.4,286047000.2,N
1517262615.3,286047001.0,N
1517262635.1,286046998.1,N
1517262655.9,286046999.0,N
1517262675.7,286046998.7,N
1517262695.5,286047000.8,N
1517262715.4,286046998.5,N
1517262735.2,286046998.9,N
1517262755.0,286047001.0,N
1517262755.9,286047001.0,N
1517262775.8,286047000.2,N
1517262795.6,286047000.2,N
1517262815.5,286047000.6,N
1517262835.3,286047002.8,N
1517262855.1,286047002.7,N
1517262875.9,286047002.4,N
1517262895.7,286047000.6,N
1517262915.5,286047000.9,N
1517262935.4,286047000.5,N
1517262955.2,286046998.6,N
1517262975.1,286047000.2,N
1517262976.0,286047000.2,N
1517262995.8,286047001.1,N
1517263015.6,286047000.5,N
1517263035.5,286047000.3,N
1517263055.3,286047000.9,N
1517263075.1,286046998.4,N
1517263095.9,286047000.6,N
1517263115.7,286046999.8,N
1517263135.6,286047002.0,N
1517263155.4,286047001.6,N
1517263175.2,286047001.3,N
1517263195.1,286047001.6,N
1517263196.0,286047001.6,N
